Regional Weather Roundup
Issued by NWS

Home | Current Version | Previous Version | Text Only | Print | Product List | Glossary On
Versions: 1 2 3 4 5 6 7 8 9 10 11 12 13 14 15 16 17 18 19 20 21 22 23 24 25 26 27 28 29 30 31 32 33 34 35 36 37 38 39 40 41 42 43 44 45 46 47 48 49
000
ASUS44 KBMX 040010
RWRAL

ALABAMA REGIONAL WEATHER ROUNDUP
NATIONAL WEATHER SERVICE BIRMINGHAM AL
600 PM CST TUE MAR 03 2015

NOTE: "FAIR" INDICATES FEW OR NO CLOUDS BELOW 12,000 FEET
WITH NO SIGNIFICANT WEATHER AND/OR OBSTRUCTIONS TO VISIBILITY.

THE REMARK "TC" DENOTES TEMPERATURE IN DEGREES CELSIUS.

ALZ001>011-014-016>018-020-040100-
NORTH ALABAMA

CITY           SKY/WX    TMP DP  RH WIND       PRES   REMARKS
MUSCLE SHOALS  CLOUDY    64  60  87 S8        29.96F
6HR MIN TEMP:  61; 6HR MAX TEMP:  64;

HUNTSVILLE     MOCLDY    63  61  93 S10       29.98F
6HR MIN TEMP:  57; 6HR MAX TEMP:  63; 6HR PCP:  0.23;

DECATUR        MOCLDY    62  61  96 S13       29.98F
6HR MIN TEMP:  56; 6HR MAX TEMP:  62; 6HR PCP:  0.22;

HALEYVILLE       N/A     63  50  63 S9G17     30.00F HAZE
6HR MIN TEMP:  57; 6HR MAX TEMP:  63; 6HR PCP:  0.19;

GADSDEN        CLOUDY    54  52  94 CALM      30.05S VSB 1/4
6HR MIN TEMP:  50; 6HR MAX TEMP:  54; 6HR PCP:  0.26;

$$

ALZ012-013-022-023-030>036-040>044-040100-
WEST CENTRAL ALABAMA

CITY           SKY/WX    TMP DP  RH WIND       PRES   REMARKS
TUSCALOOSA     CLEAR     71  62  73 S12       29.99F
6HR MIN TEMP:  59; 6HR MAX TEMP:  73;

$$

ALZ015-024>027-033>036-040>044-040100-
CENTRAL ALABAMA

CITY           SKY/WX    TMP DP  RH WIND       PRES   REMARKS
BIRMINGHAM     LGT RAIN  63  62  97 CALM      30.05S FOG
6HR MIN TEMP:  59; 6HR MAX TEMP:  65; 6HR PCP:  0.09;

MONTGOMERY     PTCLDY    73  61  65 MISG      30.06R
6HR MIN TEMP:  73; 6HR MAX TEMP:  79; 6HR PCP:  0.75;

SHELBY CO ARPT FOG       64  63  96 CALM      30.04S VSB 3/4
6HR MIN TEMP:  62; 6HR MAX TEMP:  69; 6HR PCP:  0.03;

MAXWELL AFB    MOCLDY    73  62  68 S7        30.05R
6HR MIN TEMP:  70; 6HR MAX TEMP:  78;

GREENVILLE     FAIR      70  61  73 SW7       30.06R
6HR MIN TEMP:  70; 6HR MAX TEMP:  78;

$$

ALZ019-021-028-029-037-038-045>048-040100-
EAST CENTRAL ALABAMA

CITY           SKY/WX    TMP DP  RH WIND       PRES   REMARKS
ANNISTON       CLOUDY    63  60  90 N3        30.05S
6HR MIN TEMP:  57; 6HR MAX TEMP:  63; 6HR PCP:  0.02;

ALEXANDER CITY PTCLDY    69  61  75 CALM      30.07R
6HR MIN TEMP:  67; 6HR MAX TEMP:  74;

AUBURN         CLOUDY    70  57  64 S7        30.10R
6HR MIN TEMP:  63; 6HR MAX TEMP:  73;

$$

ALZ051>064-040100-
SOUTHWEST ALABAMA

CITY           SKY/WX    TMP DP  RH WIND       PRES   REMARKS
MOBILE         PTCLDY    66  63  90 SE12      30.05F
6HR MIN TEMP:  66; 6HR MAX TEMP:  73;

BROOKLEY FIELD CLEAR     66  62  87 S12G20    30.06F
6HR MIN TEMP:  66; 6HR MAX TEMP:  71;

EVERGREEN      CLOUDY    68  62  81 S9        30.08S
6HR MIN TEMP:  68; 6HR MAX TEMP:  76;

$$

ALZ049-050-065>069-040100-
SOUTHEAST ALABAMA

CITY           SKY/WX    TMP DP  RH WIND       PRES   REMARKS
DOTHAN         CLEAR     73  61  65 SW10      30.11S
6HR MIN TEMP:  72; 6HR MAX TEMP:  82;

OZARK          PTCLDY    72  60  67 S7        30.08S
6HR MIN TEMP:  72; 6HR MAX TEMP:  81;

TROY           CLEAR     72  60  66 S8        30.08R
6HR MIN TEMP:  71; 6HR MAX TEMP:  80;

EUFAULA        FAIR      76  60  57 SW5       30.06R
6HR MIN TEMP:  76; 6HR MAX TEMP:  83;

$$


USA.gov is the U.S. government's official web portal to all federal, state and local government web resources and services.